SAR-LUPE 2 1 31797U 07030A 26163.82687069 .00016730 00000+0 30586-3 0 9992 2 31797 98.1031 267.7218 0006246 148.0024 212.1605 15.49451040 56260 SAPPHIRE 1 39088U 13009C 26163.83953258 .00000109 00000+0 53043-4 0 9990 2 39088 98.4259 343.3986 0009990 261.1238 98.8817 14.35239431695953 PRAETORIAN SDA_602 1 65565U 25203A 26163.83203087 .00000054 00000+0 37251-4 0 9998 2 65565 81.3033 14.8035 0005544 196.2659 163.8321 13.84342304 38090 PRAETORIAN SDA_603 1 65566U 25203B 26163.85734172 .00000211 00000+0 17913-3 0 9992 2 65566 81.3038 14.6939 0009080 199.4751 160.6060 13.83905065 38109 PRAETORIAN SDA_604 1 65567U 25203C 26163.87437559 .00000069 00000+0 51873-4 0 9999 2 65567 81.3056 15.0835 0005034 204.2276 155.8644 13.83047127 38089 PRAETORIAN SDA_605 1 65568U 25203D 26163.11767907 .00000053 00000+0 37162-4 0 9998 2 65568 81.3021 15.4507 0007823 197.0815 163.0079 13.83433835 37995 PRAETORIAN SDA_606 1 65569U 25203E 26163.82337565 .00000067 00000+0 49690-4 0 9994 2 65569 81.3056 15.0178 0005487 193.1093 166.9921 13.83406922 38089 PRAETORIAN SDA_607 1 65570U 25203F 26163.11138204 .00000181 00000+0 15194-3 0 9995 2 65570 81.3040 15.3468 0008415 201.8389 158.2410 13.84284152 38007 PRAETORIAN SDA_608 1 65571U 25203G 26163.08706774 .00000056 00000+0 40207-4 0 9990 2 65571 81.3009 15.5295 0005523 205.5901 154.4983 13.83816383 37986 PRAETORIAN SDA_609 1 65572U 25203H 26163.88855102 -.00001961 00000+0 -17691-2 0 9996 2 65572 81.3059 14.7636 0004943 212.5610 147.5243 13.84242642 38101 PRAETORIAN SDA_610 1 65573U 25203J 26163.86226860 .00000052 00000+0 36009-4 0 9992 2 65573 81.3010 14.7700 0006212 200.7714 159.3190 13.83851555 38094 PRAETORIAN SDA_611 1 65574U 25203K 26163.86135454 .00000299 00000+0 26169-3 0 9999 2 65574 81.3021 14.9342 0005120 208.0728 152.0153 13.83307729 38081 PRAETORIAN SDA_612 1 65575U 25203L 26163.85636600 .00000233 00000+0 19514-3 0 9992 2 65575 81.3031 14.5347 0008837 198.9238 161.1592 13.85038872 38119 PRAETORIAN SDA_613 1 65576U 25203M 26163.86639940 .00000057 00000+0 41262-4 0 9994 2 65576 81.3002 14.9219 0005315 196.2434 163.8552 13.82764718 38080 PRAETORIAN SDA_614 1 65577U 25203N 26163.84472664 .00000044 00000+0 28154-4 0 9992 2 65577 81.3017 14.6220 0006774 195.8451 164.2495 13.84777828 38113 PRAETORIAN SDA_615 1 65578U 25203P 26163.09783137 .00000182 00000+0 15170-3 0 9996 2 65578 81.3025 15.2753 0008664 199.6517 160.4307 13.84435796 38009 PRAETORIAN SDA_616 1 65579U 25203Q 26163.06478596 .00000194 00000+0 16586-3 0 9999 2 65579 81.3065 15.8113 0005046 207.3340 152.7551 13.83267463 37975 PRAETORIAN SDA_617 1 65580U 25203R 26163.88167384 .00000037 00000+0 22853-4 0 9992 2 65580 81.3038 14.8880 0007030 196.1616 163.9317 13.83149890 38094 PRAETORIAN SDA_618 1 65581U 25203S 26163.85958697 .00000114 00000+0 90909-4 0 9998 2 65581 81.3023 14.5003 0009306 199.9738 160.1056 13.84669221 38115 PRAETORIAN SDA_619 1 65582U 25203T 26163.82053118 .00000149 00000+0 12393-3 0 9998 2 65582 81.3049 14.8269 0007862 198.1715 161.9162 13.83804488 38721 PRAETORIAN SDA_620 1 65583U 25203U 26163.84792891 .00000187 00000+0 15865-3 0 9998 2 65583 81.3031 14.8217 0007272 193.0465 167.0505 13.83617938 38097 PRAETORIAN SDA_621 1 65584U 25203V 26163.09924827 .00000055 00000+0 38562-4 0 9996 2 65584 81.3023 15.4345 0007078 192.8352 167.2625 13.83800803 37992 PRAETORIAN SDA_601 1 65585U 25203W 26163.86326112 .00000062 00000+0 45952-4 0 9994 2 65585 81.3047 15.0191 0004942 208.5495 151.5391 13.83167332 38084